Location: Brookfield Village
(37.7352°N, 122.1861°W)
Time: 18:54:21
(UTC+00:00)

IRIDIUM 104 - Pass Details

Date: 03 August 2024
Orbit: 776 x 779 km, 86.4° (Epoch: 06 September)

Event Time Altitude Azimuth Distance (km) Brightness Sun altitude
Rises 12:37:13 0° 192° (SSW) 3,248 7.2 -7.5°
Reaches altitude 10° 12:39:35 10° 196° (SSW) 2,324 6.4 -7.1°
Maximum altitude 12:44:42 57° 275° (W) 918 4.5 -6.2°
Drops below altitude 10° 12:49:51 10° 353° (N) 2,338 7.1 -5.3°
Sets 12:52:15 0° 358° (N) 3,269 7.9 -4.9°
